Date String (YYYY-MM-DD hh:mm:ss) UTC,Instrument flags,Ambient pressure (hPa),Sample flow (lpm),Bypass flow (lpm),Sample temperature (°C),Ambient temperature (°C),ASC tube jacket temperature (°C),LED temperature (°C),Box temperature (°C),Sample RH (%),Span deviation,Mass concentration (μg/m³),Mass concentration (μg/m³),Mass concentration (μg/m³)
DateTimeUTC,F1_M11,P_M11,Q1_M11,Q2_M11,T1_M11,T2_M11,T3_M11,T4_M11,T5_M11,U1_M11,ZSPAN_M11,X0_M11,X2_M11,X1_M11
2022-01-21 08:00:00,,0822.4,5.00,0.00,22.3,21.7,00.0,31.3,24.1,12.7,-001.6,0016.86,0012.92,0012.69
2022-01-21 08:01:00,,0822.5,4.98,0.00,22.3,21.7,00.0,31.3,24.0,12.7,-001.8,0016.99,0013.00,0012.76
2022-01-21 08:02:00,,0822.6,5.01,0.00,22.3,21.6,00.0,31.3,24.0,12.8,-001.8,0017.08,0013.07,0012.83
2022-01-21 08:03:00,,0822.5,4.99,0.00,22.3,21.6,00.0,31.3,24.0,12.8,-001.8,0017.08,0013.08,0012.84
2022-01-21 08:04:00,,0822.5,5.02,0.00,22.3,21.6,00.0,31.3,24.0,12.8,-001.9,0017.15,0013.13,0012.89
2022-01-21 08:05:00,,0822.5,5.00,0.00,22.3,21.6,00.0,31.3,24.0,12.8,-001.9,0017.17,0013.20,0012.97
2022-01-21 08:06:00,,0822.5,5.00,0.00,22.2,21.5,00.0,31.3,24.0,12.8,-001.8,0017.32,0013.32,0013.10
2022-01-21 08:07:00,,0822.5,4.98,0.00,22.2,21.5,00.0,31.3,23.9,12.8,-001.9,0017.49,0013.46,0013.23
2022-01-21 08:08:00,,0822.3,5.01,0.00,22.2,21.5,00.0,31.2,23.9,12.8,-001.7,0017.53,0013.54,0013.30
2022-01-21 08:09:00,,0822.3,4.99,0.00,22.2,21.5,00.0,31.2,23.9,12.9,-001.7,0017.67,0013.66,0013.41
2022-01-21 08:10:00,,0822.4,5.02,0.00,22.2,21.5,00.0,31.2,23.9,12.9,-001.8,0017.73,0013.72,0013.49
2022-01-21 08:11:00,,0822.4,4.99,0.00,22.2,21.6,00.0,31.2,23.9,12.9,-001.7,0017.80,0013.78,0013.55
2022-01-21 08:12:00,,0822.4,5.01,0.00,22.3,22.3,00.0,31.2,24.1,12.9,-001.5,0017.96,0013.89,0013.67
2022-01-21 08:13:00,,0822.4,5.00,0.00,22.4,23.1,00.0,31.3,24.3,12.8,-001.4,0018.07,0013.97,0013.73
2022-01-21 08:14:00,,0822.3,5.00,0.00,22.5,23.1,00.0,31.3,24.5,12.7,-001.5,0018.26,0014.07,0013.82
2022-01-21 08:15:00,,0822.3,5.00,0.00,22.6,22.9,00.0,31.3,24.5,12.7,-001.4,0018.40,0014.15,0013.88
2022-01-21 08:16:00,,0822.4,4.99,0.00,22.6,22.7,00.0,31.4,24.5,12.7,-001.4,0018.48,0014.19,0013.92
2022-01-21 08:17:00,,0822.4,5.01,0.00,22.6,22.6,00.0,31.4,24.4,12.7,-001.5,0018.64,0014.27,0013.96
2022-01-21 08:18:00,,0822.3,4.99,0.00,22.5,22.4,00.0,31.4,24.3,12.7,-001.5,0018.82,0014.35,0014.03
2022-01-21 08:19:00,,0822.3,5.01,0.00,22.5,22.3,00.0,31.4,24.3,12.7,-001.6,0018.96,0014.43,0014.11
2022-01-21 08:20:00,,0822.3,4.99,0.00,22.5,22.2,00.0,31.4,24.3,12.7,-001.8,0019.13,0014.51,0014.17
2022-01-21 08:21:00,,0822.3,5.01,0.00,22.5,22.1,00.0,31.4,24.2,12.7,-001.8,0019.26,0014.58,0014.23
2022-01-21 08:22:00,,0822.3,5.00,0.00,22.5,22.0,00.0,31.4,24.2,12.7,-001.7,0019.25,0014.58,0014.23
2022-01-21 08:23:00,,0822.3,4.99,0.00,22.5,21.9,00.0,31.4,24.2,12.8,-001.7,0019.23,0014.58,0014.25
2022-01-21 08:24:00,,0822.2,5.01,0.00,22.4,21.9,00.0,31.4,24.2,12.8,-001.7,0019.20,0014.58,0014.25
2022-01-21 08:25:00,,0822.2,4.98,0.00,22.4,21.9,00.0,31.4,24.2,12.8,-001.6,0019.19,0014.58,0014.25
2022-01-21 08:26:00,,0822.2,5.01,0.00,22.4,21.8,00.0,31.4,24.2,12.8,-001.5,0019.22,0014.58,0014.23
2022-01-21 08:27:00,,0822.2,5.01,0.00,22.4,21.8,00.0,31.4,24.2,12.8,-001.5,0019.31,0014.62,0014.27
2022-01-21 08:28:00,,0822.2,4.99,0.00,22.4,21.7,00.0,31.4,24.1,12.8,-001.5,0019.24,0014.59,0014.27
2022-01-21 08:29:00,,0822.2,5.00,0.00,22.4,21.7,00.0,31.4,24.1,12.8,-001.5,0019.22,0014.58,0014.27
2022-01-21 08:30:00,,0822.2,5.00,0.00,22.4,21.7,00.0,31.4,24.1,12.8,-001.5,0019.24,0014.58,0014.27
2022-01-21 08:31:00,,0822.1,4.99,0.00,22.4,21.7,00.0,31.4,24.1,12.8,-001.3,0019.03,0014.46,0014.17
2022-01-21 08:32:00,,0822.0,5.02,0.00,22.4,21.7,00.0,31.3,24.1,12.8,-001.3,0018.77,0014.30,0014.03
2022-01-21 08:33:00,,0822.0,5.00,0.00,22.3,21.6,00.0,31.3,24.1,12.8,-001.4,0018.60,0014.18,0013.90
2022-01-21 08:34:00,,0822.1,4.99,0.00,22.3,21.6,00.0,31.3,24.1,12.8,-001.5,0018.38,0014.03,0013.75
2022-01-21 08:35:00,,0822.2,4.99,0.00,22.3,21.6,00.0,31.3,24.1,12.8,-001.5,0018.23,0013.91,0013.64
2022-01-21 08:36:00,,0822.2,5.00,0.00,22.3,21.6,00.0,31.3,24.1,12.8,-001.6,0018.12,0013.80,0013.53
2022-01-21 08:37:00,,0822.1,5.00,0.00,22.3,21.6,00.0,31.3,24.0,12.8,-001.8,0018.00,0013.73,0013.45
2022-01-21 08:38:00,,0822.1,5.00,0.00,22.3,21.6,00.0,31.3,24.0,12.8,-001.8,0017.80,0013.62,0013.36
2022-01-21 08:39:00,,0822.2,5.00,0.00,22.4,22.2,00.0,31.3,24.2,12.8,-001.9,0017.68,0013.49,0013.23
2022-01-21 08:40:00,,0822.1,5.00,0.00,22.5,23.0,00.0,31.4,24.4,12.7,-001.9,0017.70,0013.34,0013.09
2022-01-21 08:41:00,,0822.1,5.01,0.00,22.6,23.3,00.0,31.4,24.6,12.6,-001.9,0017.48,0013.21,0012.97
2022-01-21 08:42:00,,0822.1,4.99,0.00,22.7,23.1,00.0,31.4,24.6,12.5,-002.1,0017.47,0013.18,0012.93
2022-01-21 08:43:00,,0822.1,5.01,0.00,22.7,22.9,00.0,31.4,24.6,12.5,-002.1,0017.43,0013.15,0012.91
2022-01-21 08:44:00,,0822.2,5.00,0.00,22.6,22.7,00.0,31.5,24.5,12.5,-001.9,0017.58,0013.23,0012.98
2022-01-21 08:45:00,,0822.2,4.99,0.00,22.6,22.5,00.0,31.5,24.4,12.5,-001.8,0017.83,0013.36,0013.09
2022-01-21 08:46:00,,0822.1,5.01,0.00,22.6,22.4,00.0,31.5,24.4,12.5,-001.8,0017.96,0013.43,0013.15
2022-01-21 08:47:00,,0822.2,4.99,0.00,22.6,22.3,00.0,31.5,24.4,12.5,-001.8,0018.04,0013.46,0013.17
2022-01-21 08:48:00,,0822.2,5.02,0.00,22.6,22.2,00.0,31.5,24.3,12.5,-001.6,0018.10,0013.50,0013.22
2022-01-21 08:49:00,,0822.2,4.99,0.00,22.6,22.1,00.0,31.5,24.3,12.5,-001.7,0018.20,0013.56,0013.29
2022-01-21 08:50:00,,0822.2,5.01,0.00,22.6,22.0,00.0,31.5,24.3,12.5,-001.6,0018.28,0013.59,0013.32
2022-01-21 08:51:00,,0822.3,5.00,0.00,22.5,22.0,00.0,31.5,24.3,12.5,-001.7,0018.18,0013.71,0013.41
2022-01-21 08:52:00,,0822.3,5.01,0.00,22.5,21.9,00.0,31.5,24.2,12.5,-001.8,0018.28,0013.78,0013.47
2022-01-21 08:53:00,,0822.1,4.98,0.00,22.5,21.9,00.0,31.5,24.2,12.5,-001.8,0018.50,0013.89,0013.58
2022-01-21 08:54:00,,0822.1,5.02,0.00,22.5,21.8,00.0,31.4,24.2,12.5,-001.7,0018.55,0013.93,0013.62
2022-01-21 08:55:00,,0822.2,4.99,0.00,22.4,21.8,00.0,31.4,24.2,12.5,-001.6,0018.55,0013.93,0013.61
2022-01-21 08:56:00,,0822.4,5.01,0.00,22.4,21.7,00.0,31.4,24.1,12.5,-001.7,0018.53,0013.93,0013.62
2022-01-21 08:57:00,,0822.3,4.99,0.00,22.4,21.7,00.0,31.4,24.1,12.5,-001.8,0018.61,0013.99,0013.68
2022-01-21 08:58:00,,0822.3,5.01,0.00,22.4,21.7,00.0,31.4,24.1,12.5,-001.9,0018.77,0014.08,0013.76
2022-01-21 08:59:00,,0822.2,4.99,0.00,22.4,21.6,00.0,31.4,24.1,12.5,-001.9,0018.91,0014.16,0013.85
